User: anonymous   Login
Location: Arcueil
(48.7999°N, 2.3326°E)
Time: 02:59:27
(UTC+00:00)
Language:

Cosmos 1328 - Orbit

View from above orbital plane
View from above orbital plane
View from above satellite
View from above satellite

Ground track
Ground track

The orbit data is extracted from the following two-line orbital elements,

1 12987U 81117A   24109.54983005  .00011099  00000-0  56246-3 0  9991
2 12987  82.4976 322.5199 0017983  86.2447 274.0842 15.16706852308868
Epoch (UTC): 18 April 2024 13:11:45
Eccentricity: 0.0017983
inclination: 82.4976°
perigee height: 503 km
apogee height: 528 km
right ascension of ascending node: 322.5199°
argument of perigee: 86.2447°
revolutions per day: 15.16706852
mean anomaly at epoch: 274.0842°
orbit number at epoch: 30886

The dashed part of the orbit path shows where the satellite is in the earth's shadow,  

DLR